Location: Gradaro
(45.0833°N, 10.8833°E)
Time: 21:49:29
(UTC+00:00)

SJ-12 - Pass Details

Date: 29 November 2020
Orbit: 569 x 584 km, 97.7° (Epoch: 18 January)

Event Time Altitude Azimuth Distance (km) Brightness Sun altitude
Rises 04:17:38 0° 14° (NNE) 2,784 7.5 -23.2°
Reaches altitude 10° 04:19:48 10° 17° (NNE) 1,881 6.6 -22.8°
Maximum altitude 04:23:51 72° 101° (E) 602 4.0 -22.1°
Drops below altitude 10° 04:27:54 10° 187° (S) 1,866 6.5 -21.4°
Sets 04:30:02 0° 189° (S) 2,759 7.4 -21.1°
